Location: Armstrong
(40.9123°N, 82.0110°W)
Time: 08:52:47
(UTC+00:00)

Cosmos 1892 - Pass Details

Date: 29 October 2020
Orbit: 504 x 524 km, 82.5° (Epoch: 29 November)

Event Time Altitude Azimuth Distance (km) Brightness Sun altitude
Rises 23:15:26 0° 359° (N) 2,665 6.2 -9.7°
Reaches altitude 10° 23:17:41 10° 8° (N) 1,772 5.2 -10.1°
Maximum altitude 23:21:21 40° 78° (ENE) 789 3.1 -10.8°
Drops below altitude 10° 23:25:00 10° 149° (SSE) 1,757 5.2 -11.5°
Sets 23:27:13 0° 157° (SSE) 2,639 6.1 -11.9°
